Location: Zagreb
(45.8000°N, 16.0000°E)
Time: 15:40:00
(UTC+02:00)

Transit 2A Rocket - Pass Details

Date: 09 August 2022
Orbit: 593 x 907 km, 66.7° (Epoch: 25 September)

Event Time Altitude Azimuth Distance (km) Brightness Sun altitude
Rises 04:48:13 0° 326° (NW) 2,852 8.0 -9.9°
Reaches altitude 10° 04:50:26 10° 325° (NW) 1,962 7.1 -9.6°
Maximum altitude 04:54:49 80° 239° (WSW) 643 4.5 -9.0°
Drops below altitude 10° 04:59:28 10° 153° (SSE) 2,075 7.2 -8.3°
Sets 05:01:51 0° 152° (SSE) 3,032 8.1 -8.0°
